7 * 24
多渠道服务支持
HAWK-5A是美国研制并于2022年5月25日发射的一颗小型卫星。该卫星延续了HAWK系列卫星技术特点,作为美国低轨道卫星组网布局的组成部分,主要承担空间技术验证、环境监测等任务。它运行在近地轨道,依托太阳能供电,具备长期在轨运行能力,为美国开展小卫星技术应用和空间态势感知等研究提供了支撑。
美国
(US)
| 数据来源 | 国际轨道数据 | AOE轨道数据 |
| 星历时间 | 2026-09-13T18:57:55+0800 21小时前 查看轨道信息 | 2026-09-10T08:00:00+0800 4天前 查看轨道信息 |
| 半长轴 | 6782.554km | 6782.876km |
| 偏心率 | 0.0005452 | 0.0005117 |
| 轨道倾角 | 97.669° | 97.668° |
| 近地点辐角 | 103.335° | 110.804° |
| 升交点赤经 | 61.256° | 57.557° |
| 平近点角 | 256.851° | 0.736° |
| 近地点 | 400.719km | 401.268km |
| 远地点 | 408.115km | 408.21km |
| 周期 | 92.651分钟 | 92.657分钟 |
| 每日圈数 | 15.542214 | 15.541109 |
| 事件ID | 空间交会对象 | 最接近时刻(TCA) | 交会距离 | 交会风险概率(CRP) | 交会风险指数(CRI) | 操作 |
|---|---|---|---|---|---|---|
| CDM_260916-224701-719105-275721 |
COSMOS 1805
(17191)
HAWK-5A
(52757) | 2026-09-16T 22:47:17+0000 |
1.448 km
极远距离 | 7.703146E-6 低风险 | 0.53 | |
| CDM_260916-211401-719105-275721 |
COSMOS 1805
(17191)
HAWK-5A
(52757) | 2026-09-16T 21:14:36+0000 |
1.918 km
极远距离 | 3.259799E-6 低风险 | 0.45 |